Theta_e
304 304 304 303 303 304 304 303 302 300 299 299 301 302 302 301 302 303 305 309 307 304 302 303 302 299 298 298 297 297 294 293 291 288 290 290 287 289 286 288 286 284 283 282 283 279 276 289 284 279 286 288 287 287
304 304 304 303 303 304 304 304 303 300 299 299 300 301 301 301 301 302 304 307 308 301 302 305 303 302 301 300 301 299 297 294 296 293 294 293 288 289 287 283 290 284 288 287 287 286 291 291 288 290 290 288 287 287
304 304 304 303 303 303 304 304 303 302 299 298 299 301 301 300 301 301 304 305 308 305 301 300 298 300 301 303 305 299 298 298 295 297 297 294 287 291 285 287 290 292 293 287 286 289 291 291 293 292 291 289 289 289
303 303 303 303 303 303 303 303 303 303 300 298 298 299 300 300 301 301 303 304 306 302 295 298 303 298 301 300 300 301 300 299 298 295 294 290 287 293 288 290 288 291 292 290 289 291 292 293 293 292 292 291 289 289
303 303 303 303 303 303 303 303 303 303 301 299 298 298 300 300 300 302 305 304 303 299 297 299 299 300 299 299 297 298 297 296 294 293 290 288 291 290 291 290 287 292 290 288 286 293 291 292 291 293 291 290 289 287
303 303 302 303 303 303 303 303 303 303 302 300 299 298 299 300 300 303 299 303 301 302 297 295 298 296 297 298 296 295 296 295 295 293 291 292 294 290 285 285 293 296 296 296 293 296 292 292 290 291 290 290 289 288
303 303 303 302 302 303 303 303 303 303 302 301 299 298 298 299 300 299 297 298 297 303 287 289 294 295 297 296 295 295 295 294 294 293 290 290 291 290 287 283 293 296 297 297 297 295 291 290 288 290 290 289 288 289
303 303 303 302 302 302 302 302 302 303 302 301 299 298 299 299 298 297 300 297 296 299 296 289 293 292 296 291 291 296 292 293 293 290 290 289 290 289 283 289 292 295 296 295 296 296 294 292 291 290 290 289 287 286
302 302 302 302 302 302 302 302 302 303 302 301 299 299 300 297 297 297 294 295 300 296 286 291 293 289 295 294 295 292 294 288 293 286 287 289 286 284 287 290 293 296 295 294 294 295 294 291 289 289 289 288 286 286
302 302 302 302 302 302 302 302 302 302 301 300 299 297 287 297 292 294 296 291 289 289 290 287 299 291 293 293 291 289 291 286 284 287 291 285 285 291 295 296 297 298 298 298 293 291 291 290 289 289 289 288 288 287
303 302 302 302 302 302 302 302 302 301 299 293 287 289 296 293 295 291 286 285 287 283 287 289 295 291 297 290 290 293 287 289 283 289 285 286 287 294 299 299 299 299 300 298 298 296 295 293 291 290 289 289 289 288
303 303 303 302 302 302 302 302 301 298 293 293 292 293 292 288 285 284 286 289 287 288 291 289 292 297 294 298 294 293 287 287 282 291 284 282 291 297 299 299 299 300 300 299 298 297 296 294 294 292 290 289 289 289
302 303 303 303 302 303 303 302 301 299 297 293 288 285 285 286 282 283 283 286 287 291 291 291 290 293 292 294 292 288 284 283 290 284 282 287 298 299 300 300 298 300 300 299 298 297 297 295 294 292 291 291 290 289
301 302 302 302 302 302 302 302 300 298 292 286 285 282 283 284 285 290 293 296 298 294 291 292 291 290 292 289 289 283 286 287 281 279 282 292 298 300 301 301 299 297 298 298 297 297 296 295 293 293 292 291 290 288
301 301 302 302 302 302 302 301 299 297 288 285 285 284 285 292 296 298 302 298 296 295 293 292 291 291 287 286 287 286 283 279 281 283 291 299 301 301 301 301 300 298 298 297 297 296 295 295 293 292 292 291 290 288
300 300 300 301 301 302 301 300 294 288 291 286 285 287 294 292 295 298 300 298 297 294 296 293 289 287 286 286 284 282 282 281 288 291 297 301 301 301 301 301 300 300 299 298 297 297 296 294 293 292 292 291 289 288
298 297 299 301 301 301 300 288 285 285 285 284 285 291 296 297 294 300 301 299 298 293 290 290 284 284 290 285 284 287 286 292 298 299 299 302 302 303 303 303 302 301 300 299 298 298 297 296 295 293 290 290 289 288
291 293 294 298 301 299 286 285 285 284 283 286 287 293 295 299 297 298 301 300 295 292 292 288 294 288 286 285 287 291 293 297 299 300 300 301 302 302 302 302 302 302 301 300 300 299 298 296 294 292 292 291 289 288
291 292 293 296 295 285 285 284 285 284 286 291 291 294 296 297 300 301 301 299 298 296 293 291 288 287 290 295 295 297 299 301 300 302 302 303 303 303 302 302 301 301 301 300 299 299 298 297 295 294 293 291 289 288
291 292 292 294 293 285 284 284 285 284 285 289 293 292 292 294 297 298 298 294 292 291 287 286 289 293 294 297 300 300 300 301 300 298 299 301 302 302 301 301 300 301 300 300 299 293 298 298 296 294 293 291 290 288
290 290 291 291 285 285 285 284 284 286 288 288 293 292 289 291 290 291 292 292 286 286 287 292 294 297 300 300 300 299 299 299 298 298 298 298 301 302 300 301 301 299 298 297 296 296 293 296 297 295 293 291 291 290
286 290 285 285 285 285 284 285 286 288 287 289 290 290 288 286 288 290 294 287 285 290 293 294 296 297 297 297 298 299 299 300 300 298 293 295 297 297 298 299 299 298 298 297 297 297 297 298 298 296 293 291 290 290
289 285 285 285 283 283 283 285 284 286 284 285 288 285 286 288 289 293 286 287 290 295 296 296 296 297 296 298 299 299 299 298 297 298 297 297 298 298 298 298 299 297 296 297 298 297 297 294 294 292 292 291 290 288
288 284 282 282 282 280 284 282 285 285 286 284 284 283 285 287 290 286 284 287 292 294 294 295 296 294 295 296 295 296 298 298 297 297 298 296 295 296 297 297 297 298 298 298 297 297 296 295 292 293 288 288 288 287
280 279 280 278 282 280 280 281 282 282 281 283 283 283 285 287 284 284 283 287 291 293 294 295 294 294 293 293 294 295 297 296 294 293 295 296 295 295 294 295 296 296 297 294 294 293 292 290 289 288 288 287 287 286
275 280 277 278 280 278 279 277 279 280 280 280 281 284 286 284 281 280 285 289 292 292 293 291 290 290 290 291 290 290 291 293 293 290 292 294 293 291 290 290 291 292 296 296 294 290 291 291 289 288 288 288 286 286
274 276 281 285 283 282 280 282 282 280 279 278 281 281 280 277 277 284 290 289 289 290 291 291 290 288 287 289 290 290 291 292 291 290 293 294 294 294 292 290 289 292 295 295 293 291 289 289 289 289 288 288 287 287
279 280 276 280 280 282 279 279 278 278 280 283 282 278 278 278 280 286 287 290 292 293 292 292 293 293 292 292 292 292 292 292 290 291 292 293 294 294 293 293 293 290 292 292 290 290 290 289 288 288 288 287 287 287
279 282 281 278 279 280 279 279 279 281 284 283 280 279 281 285 288 288 289 292 292 291 289 289 291 292 292 291 291 291 291 290 287 284 283 283 285 287 292 292 292 291 289 288 288 287 288 288 288 288 288 287 287 286
278 282 279 279 277 276 281 284 283 286 286 286 286 284 285 287 289 291 290 290 289 287 285 285 285 285 284 284 284 285 287 286 285 284 281 281 283 284 285 285 286 286 287 286 286 286 286 286 286 286 285 285 285 285
281 282 279 279 278 282 284 287 287 286 286 285 286 284 283 286 289 288 285 285 285 285 285 283 282 283 282 281 281 281 280 285 284 284 284 284 285 285 285 285 286 286 286 286 285 285 285 285 285 285 285 285 285 285
281 279 278 276 278 285 286 283 283 282 283 283 283 285 284 283 281 283 282 284 283 281 280 280 279 279 281 282 282 283 284 284 285 285 284 284 284 284 285 285 285 285 285 285 285 285 285 284 284 285 284 284 285 284
280 280 280 279 278 278 282 281 279 279 281 281 282 283 284 283 280 280 282 282 280 279 278 278 279 279 280 280 282 282 283 283 282 282 282 283 283 283 283 283 284 284 283 284 285 285 284 284 284 285 285 284 284 283
Wind_Speed
15 13 12 10 9 8 6 6 5 6 9 12 14 16 17 19 19 10 4 6 2 1 3 5 2 1 1 3 4 6 4 3 5 3 3 4 4 1 4 7 5 5 4 5 5 5 8 13 10 6 3 1 4 5
15 14 13 12 10 9 8 6 5 4 6 9 12 14 16 18 20 15 2 4 5 3 2 6 6 6 6 7 2 5 3 2 4 3 3 4 3 4 6 5 2 6 7 2 4 5 8 11 11 10 9 7 6 6
17 16 14 12 11 11 10 7 6 4 3 5 8 11 14 17 19 14 3 4 2 0 2 4 2 3 1 5 3 1 4 1 2 4 3 2 6 5 5 6 11 12 13 7 3 8 12 7 11 13 10 8 6 4
19 17 16 14 13 12 11 9 8 7 4 3 5 8 11 14 18 16 4 4 1 1 1 5 3 3 3 2 1 2 3 3 2 3 3 3 5 6 4 9 12 9 9 8 13 16 18 18 13 9 12 9 6 4
20 19 18 16 15 13 12 11 10 9 7 5 4 5 8 12 16 10 2 4 4 1 3 3 3 6 4 4 4 3 3 3 3 2 0 4 4 5 4 7 10 7 7 10 6 2 5 7 1 7 8 9 7 7
21 20 19 18 16 15 14 13 11 10 9 7 5 4 6 11 14 4 3 5 6 5 1 2 4 4 4 4 5 5 5 4 3 3 3 4 4 1 4 6 9 10 11 12 11 6 3 5 0 5 8 8 8 7
22 21 20 19 18 17 16 14 13 11 10 9 6 4 5 8 7 1 2 4 7 3 3 2 3 4 6 5 4 4 2 3 2 1 3 6 4 4 4 7 7 6 7 10 11 9 6 6 6 7 6 8 5 6
23 23 22 21 20 19 18 16 16 14 11 9 7 4 5 7 6 3 3 1 5 1 0 2 2 5 9 5 4 4 3 4 0 2 3 6 4 6 9 18 15 12 10 8 9 10 9 5 9 8 9 9 10 9
25 24 23 22 22 20 19 18 17 16 13 10 6 3 4 3 2 2 1 4 4 1 2 4 4 4 7 4 3 3 4 2 3 4 4 4 5 12 15 13 11 10 9 7 7 10 11 11 10 12 12 13 12 11
25 25 25 24 24 22 21 20 19 19 17 13 4 2 2 1 1 3 2 1 2 1 3 5 6 5 8 7 4 4 3 3 3 7 4 5 9 18 17 17 15 13 9 11 10 11 11 13 13 12 14 12 12 12
26 26 26 26 25 25 24 23 23 23 13 2 3 4 3 2 1 1 2 3 4 4 6 6 8 7 5 7 5 6 4 3 4 4 5 5 8 8 12 15 14 16 15 13 14 12 11 13 12 12 12 12 11 11
26 27 27 26 27 26 26 27 33 13 7 7 7 5 2 0 1 3 5 4 7 6 8 5 6 3 4 2 3 4 4 4 6 6 4 7 8 12 10 8 8 9 12 15 13 13 13 13 13 13 12 13 12 12
26 26 27 27 27 27 27 32 36 26 18 4 3 4 3 4 7 8 10 7 6 6 8 8 8 5 4 5 3 4 5 6 1 3 7 9 5 4 6 7 8 7 8 10 12 11 12 13 12 13 13 13 13 12
25 25 27 27 27 27 27 34 32 24 7 5 8 8 9 9 9 11 10 6 4 6 11 9 7 4 4 6 5 5 6 3 4 6 11 6 10 9 8 6 7 10 10 10 11 11 12 11 12 12 13 12 12 13
21 23 24 26 26 26 27 36 35 8 5 7 7 11 15 9 9 8 8 6 5 10 11 8 3 4 4 4 5 6 5 8 9 9 5 3 4 5 7 8 9 9 9 11 12 12 14 14 13 14 14 13 14 13
12 14 15 21 23 24 28 31 10 1 3 5 8 9 6 12 9 10 11 8 10 11 8 4 5 4 7 6 9 11 7 11 7 5 5 6 6 7 7 7 8 9 11 11 11 12 12 12 14 18 14 14 16 16
6 2 10 19 20 24 32 9 4 7 8 8 10 9 10 7 11 11 10 8 11 11 6 4 10 14 6 6 9 8 9 4 2 4 6 8 7 7 7 8 8 8 8 9 8 9 12 13 13 11 14 16 18 18
2 6 16 7 18 13 5 2 5 8 11 10 6 8 11 10 10 9 10 11 10 9 7 6 3 7 9 9 7 6 6 6 6 6 6 8 10 9 9 10 10 10 11 10 9 9 8 7 9 11 16 17 15 16
4 6 11 14 8 6 6 5 4 6 9 4 9 7 8 9 9 8 9 12 9 6 5 3 6 7 8 7 9 7 5 4 6 7 8 10 10 11 11 12 13 14 13 12 11 9 9 11 10 10 11 10 12 12
10 8 5 5 14 4 5 3 2 3 4 6 6 9 9 9 8 9 8 9 9 6 6 9 10 8 6 4 3 4 5 6 7 9 9 8 9 12 13 11 9 11 11 11 10 8 8 9 8 9 10 11 11 13
5 1 2 1 2 1 1 4 4 3 2 4 3 7 3 7 9 10 9 9 5 5 7 9 8 7 10 9 8 8 10 11 13 12 13 11 9 9 9 8 10 10 11 11 11 12 9 10 9 8 9 10 12 12
2 4 1 1 2 4 2 3 1 2 3 2 4 3 3 3 5 8 5 6 5 8 7 9 9 9 10 12 12 14 15 17 16 12 11 11 12 10 10 9 8 10 9 9 10 10 9 8 8 7 9 10 11 12
3 2 2 3 4 5 1 4 5 5 5 5 5 3 2 3 6 7 5 4 6 8 10 11 14 14 12 14 15 16 15 16 11 11 10 9 10 10 10 10 9 10 10 10 9 9 9 8 7 7 9 9 8 9
2 3 4 3 4 3 5 4 2 4 5 6 6 5 4 5 5 5 4 6 7 9 11 14 11 11 11 14 11 11 10 9 10 9 8 9 9 10 10 10 10 9 10 10 9 9 9 7 5 4 5 8 8 10
4 4 4 3 2 4 5 4 5 4 3 3 5 4 3 1 4 6 4 3 7 7 6 8 9 10 11 11 9 7 10 7 7 8 7 7 9 9 9 9 10 10 7 7 10 9 6 6 7 7 7 9 13 14
5 6 7 4 3 3 1 2 5 5 1 2 2 1 1 2 4 3 2 3 3 2 3 6 6 6 6 7 6 5 6 7 6 6 8 6 6 6 8 9 10 11 8 7 10 9 11 10 8 11 10 12 14 15
5 6 4 3 2 2 3 3 4 3 4 4 3 5 3 4 4 4 3 7 4 3 2 1 1 2 5 7 8 8 7 8 9 9 9 9 8 9 8 10 12 13 11 11 10 10 11 13 12 12 12 10 11 12
6 4 8 6 7 6 6 2 2 4 4 3 3 6 4 6 2 3 2 2 4 2 2 4 6 6 7 8 6 7 8 8 8 9 10 10 8 7 7 8 10 15 12 11 10 11 12 14 14 14 13 13 12 9
5 6 5 6 8 4 7 8 8 4 4 5 5 6 4 3 4 4 3 2 3 6 7 5 5 5 5 6 6 7 7 7 10 14 18 14 13 11 6 8 7 7 7 9 16 12 14 13 13 12 14 10 9 7
9 7 9 10 8 6 7 6 5 5 5 5 4 7 8 6 6 6 6 6 5 3 3 2 1 2 3 5 6 6 5 5 6 7 10 12 10 10 11 11 11 10 9 9 11 13 13 10 8 7 8 7 6 6
4 6 11 11 11 9 8 5 5 6 6 6 7 8 9 5 3 3 4 3 2 1 1 4 4 4 5 7 8 9 10 4 7 10 10 10 11 11 11 11 11 11 11 11 11 11 11 11 10 11 10 11 11 10
5 7 8 10 8 5 3 3 4 6 6 7 8 5 4 4 6 3 3 4 3 5 6 6 6 7 8 7 7 8 12 10 9 9 13 10 11 13 13 11 10 11 13 13 12 11 12 13 10 11 13 13 10 9
5 7 7 6 5 8 6 5 6 9 9 10 10 9 7 6 5 4 4 6 6 5 6 6 7 8 10 12 9 10 10 9 13 16 17 16 17 16 12 10 10 11 13 13 12 10 11 12 11 12 9 7 7 7
Wind_Direction
227 234 240 243 251 260 274 294 320 345 353 357 356 352 353 349 351 347 78 16 16 284 55 352 356 125 91 250 209 110 147 191 185 267 245 239 251 301 284 258 266 236 218 226 227 254 265 105 124 199 57 181 292 303
223 228 234 238 240 246 253 262 281 311 344 355 353 353 352 349 345 346 58 49 319 112 20 355 40 22 14 15 332 175 192 155 214 213 256 342 299 249 259 268 311 236 216 238 238 253 140 188 219 200 242 261 291 293
219 221 226 230 234 236 243 240 243 261 301 342 349 350 351 348 344 352 11 356 19 55 200 195 164 129 250 29 351 242 203 88 166 34 10 293 263 292 256 250 270 242 217 224 281 258 252 303 224 229 241 231 253 278
217 217 219 220 223 227 233 233 225 233 239 287 332 343 348 344 339 336 34 348 78 357 262 123 151 168 76 242 232 345 45 81 33 197 186 232 253 229 263 285 291 263 301 242 253 267 270 269 238 251 221 221 217 233
216 215 215 214 213 217 222 226 219 215 218 232 277 323 335 334 330 311 20 40 14 76 313 56 181 134 171 194 189 185 202 193 201 147 250 236 251 271 283 275 254 224 222 220 245 219 326 305 339 284 225 211 206 220
214 214 212 212 211 208 210 215 215 210 207 213 237 287 322 326 326 304 6 95 6 344 268 230 92 165 173 197 193 194 201 215 203 151 245 259 279 274 279 261 262 247 233 245 257 289 308 299 205 265 206 202 209 203
212 213 211 208 209 207 203 201 203 206 203 202 216 248 302 325 311 45 335 21 338 313 74 298 202 153 172 181 190 189 147 242 256 122 243 258 252 188 256 252 262 271 274 256 227 265 239 227 234 201 215 222 161 202
212 211 210 207 206 203 202 196 191 190 192 190 201 231 267 290 279 233 120 254 315 340 267 227 157 179 179 182 195 194 195 202 326 233 252 249 258 206 249 243 263 276 288 279 251 215 232 245 209 222 205 220 208 203
213 211 210 205 206 202 199 194 186 178 171 167 180 239 259 239 209 75 159 293 273 219 219 233 221 181 167 193 153 170 217 219 194 222 234 206 222 229 232 248 256 249 229 239 252 228 222 225 232 220 217 208 220 222
218 214 211 205 203 200 195 190 179 160 147 140 179 252 257 348 13 174 192 63 31 325 228 248 240 160 184 175 151 155 202 229 230 223 199 220 255 249 250 245 243 250 255 217 226 224 216 226 225 229 224 213 218 216
220 218 215 208 203 200 192 183 158 131 116 120 156 222 76 31 230 346 211 221 154 230 205 230 236 140 203 174 165 191 181 219 246 170 213 234 256 239 233 225 224 230 234 234 220 222 219 219 223 225 228 225 215 215
221 220 217 214 207 202 192 174 157 148 158 169 126 77 47 159 161 218 212 190 217 236 166 185 198 151 138 203 161 164 217 189 250 135 237 253 250 244 241 203 215 219 213 219 225 223 219 222 217 220 217 218 217 212
223 221 219 217 211 204 192 174 170 129 115 92 85 127 163 172 216 210 195 208 218 189 164 170 161 136 137 192 182 175 218 226 317 227 241 242 302 229 209 205 194 207 212 222 225 232 226 223 217 213 220 211 213 211
226 222 221 217 214 206 191 177 159 142 104 138 157 191 206 190 218 200 210 194 162 146 150 154 147 147 156 170 175 205 213 219 228 234 235 247 230 228 226 212 208 206 217 224 228 232 239 228 224 219 217 212 207 210
227 224 222 218 213 205 186 172 165 157 130 165 173 218 211 210 196 197 220 125 132 143 151 148 137 143 155 193 204 190 186 225 218 233 223 248 210 194 207 218 211 220 214 217 223 224 227 229 223 224 216 210 209 207
230 223 224 217 208 197 180 164 155 130 163 173 219 234 196 186 204 197 182 171 146 155 152 157 147 181 208 206 195 203 203 218 229 210 248 271 219 210 231 232 231 223 225 228 226 231 234 227 223 227 219 208 210 210
221 145 337 197 187 181 165 124 137 170 195 209 230 210 236 206 191 196 193 164 142 162 174 152 184 207 164 212 205 199 218 225 185 208 244 261 259 268 268 259 247 247 252 242 241 246 243 235 233 231 225 217 213 215
346 341 349 326 170 155 35 93 167 197 216 221 222 203 207 206 189 201 190 155 156 188 166 201 220 216 211 203 201 222 234 247 257 270 273 278 282 279 274 271 268 267 264 262 259 266 258 245 229 232 232 228 220 218
307 312 323 325 134 110 149 189 201 217 222 238 207 230 196 208 221 212 202 169 177 154 104 164 219 224 230 234 247 265 279 261 270 269 265 268 270 271 267 267 267 273 269 261 255 249 249 235 232 229 238 232 229 220
307 301 325 188 129 130 164 174 174 252 217 220 223 199 202 193 199 208 217 163 165 152 195 211 217 215 216 227 248 273 275 275 272 274 270 272 277 281 281 282 281 289 290 289 283 265 258 255 231 230 234 224 227 227
308 261 100 73 99 177 159 159 184 223 206 253 260 185 158 189 203 204 201 151 177 202 226 226 248 254 254 264 272 271 269 269 270 273 280 280 276 283 293 290 289 284 280 278 277 277 263 260 260 230 230 229 230 229
283 271 138 157 229 175 207 181 207 193 216 261 158 165 165 169 185 208 192 195 201 225 222 238 253 254 252 252 253 251 258 263 270 272 268 269 273 273 275 274 277 278 275 278 280 275 271 260 253 228 222 226 225 229
282 245 228 202 225 202 184 159 180 194 201 175 150 185 212 197 187 164 217 206 233 231 236 238 248 256 265 269 269 267 273 279 281 283 286 285 284 284 286 284 282 279 279 275 269 267 269 266 244 220 225 227 225 230
211 293 285 207 207 212 151 196 222 189 197 183 178 188 186 184 155 198 217 204 221 225 235 240 242 255 261 265 270 274 276 282 287 291 303 302 293 293 297 292 288 281 280 284 283 277 273 270 269 228 203 218 218 222
250 210 267 219 208 256 195 178 181 202 228 183 208 180 168 103 211 209 200 224 230 240 239 238 243 250 263 276 287 316 337 330 330 314 317 308 306 307 306 303 294 283 284 278 278 283 270 248 249 244 221 218 226 226
242 189 204 220 179 216 256 310 174 178 163 279 242 49 171 209 226 247 200 233 256 315 11 38 27 7 1 10 352 341 330 307 286 281 282 273 276 278 284 289 295 295 290 281 285 273 268 268 248 244 243 239 235 236
230 220 199 242 297 233 210 214 191 179 198 218 200 192 198 235 237 221 59 38 53 66 57 117 236 244 250 263 261 258 261 274 281 285 294 294 293 287 285 285 279 275 289 293 289 277 270 271 264 253 250 247 241 236
241 254 214 211 227 243 249 254 241 216 222 224 216 214 212 207 215 61 67 232 268 258 236 246 237 241 251 262 283 304 306 299 288 288 284 280 279 278 275 269 265 269 277 287 284 277 273 270 269 263 252 252 256 235
223 224 227 217 220 228 236 243 239 245 264 280 273 274 275 303 359 355 320 273 284 283 283 297 319 340 325 326 318 306 296 298 305 304 300 296 301 300 307 300 312 322 322 310 298 283 273 266 266 263 263 256 249 239
231 228 240 241 228 229 242 268 286 304 316 321 322 302 294 298 308 304 304 305 313 335 6 344 323 325 318 319 318 318 338 339 333 321 314 308 311 320 312 305 300 296 289 282 283 287 282 265 262 257 250 242 234 230
228 219 231 240 248 252 256 266 270 276 269 266 267 268 278 290 290 35 47 26 350 313 17 4 350 355 353 338 328 321 316 315 300 292 282 283 290 296 297 295 294 292 288 282 279 277 277 277 266 259 253 246 240 225
203 233 244 251 256 252 190 231 261 258 259 256 254 239 234 232 242 119 21 349 42 47 43 17 351 338 338 326 312 296 292 300 308 321 320 310 303 297 294 294 292 290 289 283 277 273 272 268 261 260 263 256 234 203
236 248 252 264 259 258 250 237 255 259 244 245 245 241 241 245 260 102 89 40 33 37 27 359 334 323 313 304 305 314 310 323 321 314 310 305 303 303 304 303 300 296 292 286 277 271 268 266 266 261 240 215 192 174